Wind_Speed
11 11 12 11 11 11 9 9 9 10 10 9 9 8 8 7 7 7 8 8 8 9 10 10 10 10 11 11 11 11 11 11 11 10 10 9 9 8 7 7 6 6 5 5 4 5 5 5 5
9 10 10 9 10 8 7 8 8 8 9 8 8 8 7 7 6 7 7 7 7 7 8 8 8 8 9 9 9 9 9 9 9 9 9 9 8 8 7 7 6 5 5 4 4 3 3 3 4
8 8 8 9 8 6 6 6 6 6 7 7 7 7 6 6 5 5 6 6 6 6 6 6 6 6 6 7 7 7 8 8 8 8 8 7 7 7 6 6 6 5 5 4 3 3 2 3 3
6 6 7 7 6 5 4 5 4 4 5 5 5 5 5 4 4 4 4 4 4 5 4 4 4 4 4 5 5 5 6 6 6 6 6 6 6 6 6 5 5 5 4 3 3 2 2 2 2
4 4 5 5 3 3 3 2 3 3 3 4 3 3 3 3 3 3 3 3 4 4 4 4 4 3 3 3 3 4 4 4 4 4 4 4 4 4 4 4 4 4 3 3 2 2 1 1 1
2 2 3 2 1 1 1 1 1 2 2 3 2 2 1 1 1 2 3 3 4 5 5 5 5 5 5 5 4 4 4 3 3 3 3 3 3 3 3 3 3 3 2 2 2 1 1 1 1
1 1 0 0 1 2 2 2 2 2 2 3 3 3 3 2 2 3 4 5 6 6 7 7 8 8 8 8 7 7 6 6 5 4 4 4 3 3 3 3 3 3 2 2 2 2 2 2 2
3 3 3 3 3 4 4 4 4 4 5 5 5 5 5 6 5 6 7 8 8 9 9 10 10 11 11 11 11 10 10 9 8 7 7 6 6 5 5 5 4 4 4 3 3 2 3 2 2
6 5 5 5 6 5 6 6 7 7 7 8 8 8 8 8 9 9 9 10 11 12 12 12 13 14 14 14 14 13 13 12 11 10 10 9 8 8 7 7 7 6 6 5 5 4 4 4 3
8 8 8 8 8 9 9 9 10 10 11 11 11 12 12 12 12 12 13 13 14 15 15 16 16 17 17 17 16 16 16 15 15 14 13 12 11 11 10 9 9 8 8 8 7 7 6 5 5
10 10 10 11 11 11 12 13 13 14 14 14 15 15 15 15 16 16 16 17 18 18 19 20 20 20 20 20 20 19 18 18 18 18 17 16 15 14 13 12 11 10 10 10 9 9 8 8 7
12 12 13 13 14 14 15 16 17 17 18 18 18 19 19 19 19 20 20 20 21 22 22 23 24 24 25 25 23 23 22 21 21 20 20 18 17 16 15 14 13 13 12 12 12 11 11 10 9
13 14 15 16 17 18 19 19 20 20 21 22 22 23 23 24 24 24 25 25 26 26 26 27 27 28 29 28 27 26 25 25 24 22 21 21 20 18 18 17 16 15 15 15 14 14 13 13 12
15 16 17 18 19 20 21 22 23 24 25 25 25 26 27 27 27 28 28 29 30 30 31 31 31 31 32 31 30 30 29 28 27 27 26 24 23 22 21 20 19 18 17 17 16 16 16 15 15
16 18 19 20 21 23 24 24 25 26 27 28 28 28 29 30 30 31 32 33 33 34 34 35 35 35 35 34 33 32 33 32 31 30 29 27 27 26 25 23 22 21 20 18 18 18 18 17 17
18 20 22 22 23 24 26 26 27 28 29 29 30 30 31 32 33 34 35 37 38 37 37 37 37 38 38 38 37 35 34 34 33 32 31 30 30 30 29 26 24 23 23 21 20 20 20 19 19
21 22 24 25 25 26 27 28 28 28 29 30 31 32 33 34 35 36 37 38 39 40 40 40 40 39 39 40 40 39 38 36 35 33 33 32 31 31 31 30 28 26 24 24 23 23 22 21 20
22 24 25 26 26 27 28 29 29 30 31 32 33 34 34 35 36 36 37 38 40 41 42 42 42 42 42 42 42 41 41 40 39 37 36 34 33 32 31 30 29 27 26 25 25 25 24 23 23
23 24 25 25 26 27 28 29 29 30 31 32 32 33 34 34 35 36 38 38 39 40 41 42 42 42 43 43 43 42 42 42 41 41 40 39 36 35 34 31 31 31 28 27 26 26 25 24 24
22 23 24 25 26 27 27 28 28 28 29 30 30 31 31 33 34 35 35 36 37 37 37 38 40 40 41 42 43 42 42 42 41 41 41 41 39 38 37 34 33 32 30 29 28 27 26 26 25
22 22 23 24 24 25 26 26 26 26 26 26 27 27 28 29 30 30 31 33 34 34 34 34 35 36 37 39 40 41 41 41 41 41 41 41 40 40 40 37 35 34 32 31 30 29 28 27 27
20 20 21 22 23 23 24 25 23 24 24 24 24 25 26 26 26 26 27 28 29 29 29 30 31 32 33 34 35 36 38 39 40 40 40 40 39 40 39 39 39 38 35 33 32 31 30 30 29
19 20 20 21 21 22 21 21 22 22 23 23 23 23 23 23 23 23 23 24 24 24 24 25 27 28 29 30 31 32 33 34 36 37 38 38 38 39 38 38 37 37 37 36 35 33 32 31 30
18 18 18 18 18 18 18 18 19 20 20 20 21 21 21 20 20 21 21 20 20 20 20 21 21 21 22 24 26 27 29 30 31 33 35 36 37 37 38 38 38 37 37 37 35 34 32 33 32
15 16 17 17 16 17 16 16 17 18 17 17 17 17 17 17 19 19 18 17 18 18 17 16 16 16 17 17 19 21 23 25 27 29 30 33 34 35 36 37 37 36 36 35 34 34 34 34 34
13 14 14 14 15 15 15 16 16 16 16 16 16 16 17 17 18 18 16 16 16 15 14 12 11 11 11 11 13 15 17 20 22 24 26 28 30 32 33 34 35 36 37 35 34 34 33 32 32
13 12 12 12 13 13 14 14 15 15 15 16 16 16 17 17 17 16 16 15 15 14 12 12 12 10 9 9 9 11 13 15 16 19 21 22 24 26 28 31 32 34 34 33 33 32 32 31 31
11 11 11 12 12 12 13 14 15 15 16 16 16 16 17 17 17 16 17 16 15 14 13 13 12 11 10 8 6 7 7 9 11 12 15 17 19 21 23 26 28 29 30 30 30 31 31 31 31
11 11 11 12 12 12 12 13 14 15 16 16 16 17 17 17 18 18 18 17 15 14 14 14 13 12 11 10 7 5 5 5 6 7 10 12 15 17 19 21 23 24 25 26 28 28 28 29 29
11 11 12 12 12 12 12 13 14 15 16 16 17 17 18 18 19 20 20 19 18 16 16 15 15 14 13 12 10 8 6 4 3 3 5 7 10 12 14 16 18 20 21 22 24 25 26 28 29
Wind_Direction
79 75 71 68 68 65 69 78 81 83 84 85 89 94 99 107 119 124 125 123 118 113 108 105 103 103 103 103 103 102 101 100 100 102 105 107 109 109 110 115 121 129 143 154 169 187 201 217 232
82 77 72 66 67 60 65 70 77 82 84 86 88 92 99 108 119 131 134 134 130 125 119 115 112 110 109 108 107 105 103 102 100 100 100 102 103 105 107 111 113 118 125 136 151 169 191 215 233
85 80 73 69 64 59 60 63 70 81 86 86 88 91 97 108 119 132 140 145 146 143 136 131 127 123 120 117 115 112 110 107 105 102 101 100 100 99 102 107 111 113 119 127 139 157 185 220 241
86 81 76 73 64 58 52 55 61 75 85 85 85 89 96 109 125 138 151 162 167 164 160 156 152 147 141 136 132 128 124 120 116 113 110 107 105 103 102 105 110 115 120 129 137 154 183 222 248
84 82 78 71 62 61 47 47 50 58 74 73 73 74 84 103 133 153 168 182 192 195 193 193 194 193 187 180 171 160 152 144 137 131 127 125 122 118 117 116 116 120 126 137 147 166 206 241 271
107 101 84 74 60 28 321 354 2 37 43 37 28 24 22 80 160 193 210 217 220 223 225 226 227 227 226 224 221 215 208 200 190 180 170 162 155 149 143 139 139 140 140 147 165 198 233 260 278
194 202 194 235 302 309 296 308 312 314 340 344 336 328 317 299 269 251 248 248 245 245 245 242 242 242 241 240 238 237 236 236 233 230 224 218 210 204 196 187 182 181 179 180 196 230 249 257 265
243 254 258 270 277 294 286 297 297 296 305 313 311 303 297 291 279 270 264 259 256 256 257 254 251 250 249 248 246 246 245 246 246 246 246 243 240 236 232 228 225 222 222 223 226 237 251 253 257
252 264 271 273 274 279 286 291 294 294 295 298 296 290 287 285 281 275 270 266 263 261 260 259 257 255 253 253 252 253 251 250 251 252 253 253 250 246 244 242 241 238 238 241 244 248 250 250 250
264 270 275 277 277 277 286 291 292 293 290 290 288 285 283 280 279 275 273 270 267 265 261 260 259 257 255 253 251 252 251 250 252 252 253 254 254 251 248 246 246 245 245 246 250 253 255 253 250
269 275 278 280 281 286 290 291 289 292 291 290 288 285 283 282 279 275 273 271 270 269 264 260 257 258 256 253 251 251 251 250 251 252 252 253 253 252 251 249 248 248 248 249 250 253 257 256 252
272 278 280 282 283 286 289 290 288 288 288 287 287 285 283 281 278 275 273 271 270 269 268 265 261 259 256 254 254 252 251 251 250 250 251 253 253 251 250 251 250 249 248 250 251 251 253 255 254
275 279 282 283 284 286 287 289 288 288 288 286 285 283 281 279 277 274 272 271 269 269 267 266 264 262 259 257 254 254 254 252 250 249 250 250 250 250 249 249 251 252 249 248 251 252 252 252 251
279 282 285 286 287 288 288 288 288 288 286 285 284 283 280 278 277 275 272 270 268 267 267 265 263 263 262 258 257 257 255 253 252 251 251 249 248 248 250 250 251 251 251 250 250 251 253 253 251
282 286 287 289 290 290 290 289 287 286 285 285 283 281 280 278 276 275 274 273 270 267 265 264 262 262 262 261 260 258 257 255 254 252 250 248 248 247 247 249 251 251 252 252 249 251 252 253 253
285 288 290 291 292 291 290 290 289 287 286 284 283 282 279 277 277 276 275 274 271 269 267 265 263 263 262 261 260 259 259 258 257 255 252 250 250 249 246 248 249 251 250 249 249 250 252 253 253
288 291 292 294 295 294 293 292 290 288 288 286 285 283 281 280 279 278 276 275 273 272 270 268 266 264 262 260 259 258 258 259 257 256 256 255 252 250 248 247 247 249 250 248 248 250 250 251 252
291 293 294 295 296 296 294 293 292 291 291 289 287 286 283 281 280 279 279 278 276 274 271 269 267 264 261 260 259 258 257 257 257 257 255 253 253 251 250 249 248 249 250 250 249 251 252 251 251
291 293 295 297 297 296 296 295 294 294 293 291 290 289 288 286 284 283 282 280 279 277 274 270 268 266 264 261 260 258 257 257 257 256 255 253 253 252 252 250 250 249 249 251 249 250 251 251 250
293 295 297 298 299 299 298 297 297 297 296 294 293 291 289 288 288 287 285 284 283 281 277 273 270 268 266 263 262 261 260 258 257 256 255 253 254 253 252 251 251 251 251 251 250 248 250 251 249
295 297 299 300 301 301 302 301 302 301 301 299 297 296 293 293 294 293 291 289 286 283 280 276 273 270 267 265 263 260 258 257 256 256 255 254 255 255 252 252 253 252 253 253 251 247 250 251 250
298 300 302 304 306 308 308 307 307 307 306 306 305 304 303 303 303 301 299 296 292 288 283 277 274 272 269 266 264 260 257 257 257 256 255 254 254 253 251 251 252 253 252 251 251 250 253 253 250
304 307 309 311 313 314 314 311 312 313 312 311 311 311 311 310 311 311 310 307 303 297 291 283 278 275 272 269 264 261 258 256 254 254 253 252 252 251 250 250 250 251 252 251 251 252 253 250 249
313 315 318 320 322 322 322 319 319 320 319 317 316 317 318 320 322 323 321 317 316 310 301 293 286 282 278 272 266 262 259 255 253 252 251 250 250 249 249 250 250 249 249 249 248 248 248 247 248
322 326 329 331 332 330 330 329 329 329 329 328 327 328 328 330 332 334 332 327 326 322 315 307 299 292 285 276 267 261 257 254 252 251 250 249 248 247 246 247 247 247 248 247 247 247 247 248 249
334 334 336 337 337 338 339 340 341 342 343 343 342 342 344 344 345 344 344 342 341 340 336 331 322 313 303 288 273 264 259 256 254 251 250 248 247 247 246 246 246 247 248 248 249 247 246 248 248
344 347 348 347 347 347 349 351 353 355 356 358 358 358 358 357 355 356 356 353 351 353 356 354 355 348 332 310 289 273 263 257 253 251 249 248 247 246 246 245 245 246 246 246 245 245 246 247 248
1 2 0 1 360 0 1 4 7 8 8 8 9 9 9 9 8 7 6 6 7 11 11 8 7 5 358 341 316 300 280 262 256 255 253 249 245 244 243 242 241 242 245 246 245 247 246 247 248
13 15 15 15 16 15 13 15 17 17 17 19 20 19 19 20 21 20 19 18 20 22 22 19 17 13 13 11 359 338 319 298 275 265 261 255 248 244 241 241 243 246 247 245 245 245 243 243 244
25 27 26 26 27 26 24 24 23 25 25 26 26 26 27 29 29 28 27 27 30 32 31 28 28 30 31 32 28 24 12 354 315 291 274 263 253 247 246 244 243 244 244 245 247 247 245 246 246
Height
5931 5931 5931 5932 5932 5932 5931 5931 5930 5929 5928 5927 5927 5926 5926 5926 5927 5929 5926 5924 5924 5923 5922 5922 5922 5922 5922 5921 5921 5921 5920 5919 5919 5918 5918 5918 5917 5917 5917 5917 5916 5916 5917 5917 5917 5917 5917 5917 5918
5932 5932 5933 5934 5933 5933 5933 5932 5931 5930 5929 5928 5927 5927 5926 5926 5926 5926 5925 5924 5924 5924 5923 5923 5923 5923 5922 5922 5922 5921 5921 5920 5920 5919 5919 5918 5918 5917 5917 5917 5917 5917 5917 5917 5917 5917 5917 5917 5917
5933 5933 5935 5934 5934 5934 5934 5933 5931 5930 5929 5929 5928 5927 5927 5926 5926 5925 5925 5925 5924 5924 5924 5923 5923 5923 5923 5923 5922 5922 5921 5921 5920 5920 5919 5918 5918 5918 5917 5917 5917 5917 5917 5917 5917 5916 5916 5916 5916
5935 5935 5936 5935 5934 5934 5934 5933 5932 5931 5930 5929 5929 5928 5927 5927 5926 5926 5925 5925 5924 5924 5923 5923 5923 5923 5923 5922 5922 5922 5921 5921 5920 5920 5919 5919 5918 5918 5918 5917 5917 5917 5917 5917 5916 5916 5916 5916 5916
5936 5936 5936 5935 5935 5935 5934 5933 5932 5931 5931 5930 5929 5928 5927 5927 5926 5925 5925 5924 5924 5923 5923 5923 5923 5922 5922 5922 5921 5921 5921 5920 5920 5919 5919 5919 5918 5918 5917 5917 5917 5917 5916 5916 5916 5916 5915 5915 5915
5937 5937 5937 5936 5935 5934 5934 5933 5932 5932 5931 5930 5929 5929 5928 5927 5926 5925 5924 5924 5923 5923 5922 5922 5922 5921 5921 5921 5921 5920 5920 5919 5919 5919 5918 5918 5918 5917 5917 5917 5916 5916 5916 5916 5915 5915 5915 5915 5914
5937 5936 5936 5936 5935 5934 5934 5933 5932 5931 5931 5930 5929 5928 5927 5926 5925 5925 5924 5923 5922 5922 5921 5920 5920 5920 5920 5919 5919 5919 5919 5918 5918 5917 5917 5917 5917 5916 5916 5916 5915 5915 5915 5915 5914 5914 5914 5914 5914
5935 5936 5935 5935 5935 5934 5933 5932 5931 5930 5930 5929 5928 5928 5926 5926 5924 5923 5923 5922 5921 5920 5919 5919 5918 5918 5918 5917 5917 5917 5917 5917 5916 5916 5915 5915 5915 5915 5914 5914 5914 5914 5914 5914 5914 5913 5913 5913 5913
5934 5936 5934 5934 5934 5933 5931 5931 5930 5929 5928 5927 5926 5926 5925 5924 5922 5921 5921 5920 5919 5918 5917 5917 5916 5915 5915 5915 5914 5914 5914 5914 5914 5914 5913 5913 5913 5913 5913 5913 5913 5913 5913 5913 5912 5912 5912 5912 5912
5933 5933 5933 5932 5932 5930 5929 5929 5928 5927 5926 5925 5924 5923 5922 5921 5920 5919 5918 5917 5916 5915 5915 5914 5913 5912 5912 5911 5911 5911 5911 5911 5911 5911 5910 5910 5910 5910 5910 5910 5910 5910 5911 5911 5911 5911 5910 5910 5911
5931 5931 5930 5930 5929 5928 5927 5926 5925 5924 5924 5922 5921 5920 5919 5918 5917 5915 5914 5913 5912 5911 5911 5910 5909 5908 5907 5907 5907 5906 5906 5906 5907 5907 5907 5907 5907 5907 5907 5907 5908 5908 5908 5908 5908 5908 5908 5909 5909
5929 5928 5928 5927 5926 5926 5924 5923 5922 5921 5920 5919 5918 5916 5915 5914 5912 5911 5910 5909 5908 5907 5906 5905 5904 5903 5902 5902 5902 5901 5902 5902 5902 5902 5903 5903 5903 5903 5904 5904 5904 5904 5905 5905 5905 5906 5906 5906 5906
5927 5926 5925 5924 5923 5922 5921 5920 5919 5917 5916 5915 5913 5912 5910 5909 5907 5906 5904 5903 5902 5901 5900 5899 5898 5898 5896 5896 5896 5896 5896 5897 5897 5897 5898 5898 5899 5899 5899 5900 5900 5900 5901 5901 5902 5902 5903 5903 5903
5925 5923 5922 5921 5920 5919 5917 5916 5915 5913 5911 5910 5908 5906 5905 5903 5901 5900 5898 5897 5895 5894 5893 5892 5892 5891 5890 5889 5889 5890 5890 5890 5891 5891 5892 5893 5893 5894 5894 5895 5896 5896 5897 5897 5898 5898 5899 5899 5900
5922 5921 5920 5918 5916 5915 5913 5912 5909 5907 5905 5904 5902 5900 5898 5896 5894 5893 5891 5889 5888 5887 5886 5885 5884 5883 5882 5882 5882 5882 5883 5883 5884 5884 5885 5886 5887 5888 5889 5889 5890 5891 5892 5892 5893 5894 5895 5895 5896
5919 5918 5916 5914 5912 5910 5910 5906 5904 5901 5899 5897 5895 5893 5891 5889 5887 5884 5883 5881 5879 5878 5877 5876 5875 5874 5874 5874 5874 5874 5875 5875 5876 5877 5878 5879 5880 5881 5882 5884 5885 5886 5887 5888 5889 5889 5890 5891 5892
5915 5914 5911 5909 5907 5904 5903 5900 5897 5895 5893 5890 5888 5886 5883 5881 5878 5876 5874 5872 5870 5869 5868 5867 5866 5865 5865 5865 5865 5865 5866 5867 5868 5870 5871 5872 5873 5875 5876 5877 5878 5880 5881 5882 5883 5884 5885 5886 5887
5911 5909 5907 5904 5901 5899 5896 5893 5891 5888 5886 5883 5880 5877 5875 5872 5869 5867 5865 5862 5860 5858 5857 5856 5856 5855 5855 5855 5856 5856 5857 5858 5860 5861 5863 5865 5866 5868 5869 5870 5871 5873 5874 5875 5877 5878 5879 5881 5882
5908 5905 5902 5899 5896 5893 5890 5887 5884 5882 5879 5875 5872 5869 5866 5863 5860 5858 5855 5852 5850 5847 5846 5845 5845 5844 5844 5845 5845 5846 5847 5848 5850 5852 5854 5856 5858 5860 5861 5863 5864 5866 5867 5869 5870 5872 5873 5874 5876
5904 5901 5898 5895 5891 5888 5885 5882 5878 5875 5872 5868 5865 5862 5858 5855 5852 5849 5846 5843 5840 5837 5835 5834 5833 5833 5833 5834 5835 5836 5837 5839 5840 5842 5844 5847 5849 5851 5853 5855 5857 5858 5860 5861 5863 5865 5866 5868 5870
5899 5897 5893 5890 5887 5883 5879 5876 5873 5869 5865 5861 5858 5854 5851 5848 5844 5841 5837 5833 5830 5828 5826 5824 5823 5822 5822 5823 5824 5825 5827 5828 5830 5832 5835 5837 5839 5842 5844 5846 5849 5851 5852 5854 5855 5857 5859 5861 5863
5895 5893 5889 5886 5882 5879 5876 5871 5867 5863 5859 5856 5852 5848 5845 5841 5837 5833 5830 5826 5823 5820 5817 5815 5813 5813 5812 5813 5813 5815 5816 5818 5820 5822 5824 5827 5830 5832 5835 5837 5840 5842 5844 5846 5848 5849 5851 5853 5855
5891 5888 5885 5881 5878 5874 5871 5867 5863 5859 5855 5851 5847 5843 5839 5835 5831 5827 5823 5819 5816 5812 5809 5806 5805 5804 5803 5803 5803 5804 5806 5808 5810 5812 5815 5817 5820 5823 5825 5828 5830 5833 5835 5837 5839 5842 5844 5846 5847
5888 5885 5881 5878 5875 5871 5868 5864 5860 5855 5851 5847 5843 5839 5835 5831 5827 5823 5818 5814 5810 5806 5802 5800 5798 5797 5795 5795 5795 5796 5798 5799 5801 5803 5805 5808 5810 5813 5816 5818 5821 5824 5826 5828 5830 5833 5835 5837 5839
5885 5882 5879 5875 5872 5869 5865 5861 5857 5852 5848 5844 5840 5836 5832 5828 5823 5819 5814 5810 5806 5802 5798 5795 5793 5791 5790 5789 5789 5789 5790 5792 5794 5795 5797 5799 5801 5804 5806 5809 5812 5815 5817 5819 5822 5824 5827 5828 5830
5882 5880 5878 5875 5870 5866 5862 5859 5855 5850 5846 5842 5838 5834 5829 5825 5821 5816 5812 5808 5804 5800 5796 5792 5789 5788 5786 5785 5784 5784 5785 5786 5787 5788 5790 5791 5794 5796 5798 5801 5803 5806 5808 5811 5813 5816 5818 5820 5822
5880 5877 5875 5872 5869 5865 5862 5858 5854 5849 5845 5841 5837 5833 5828 5824 5820 5815 5811 5807 5803 5799 5795 5791 5788 5786 5784 5783 5781 5781 5781 5781 5782 5783 5784 5785 5786 5788 5790 5793 5795 5797 5799 5802 5804 5807 5809 5812 5814
5879 5876 5874 5871 5868 5865 5861 5857 5854 5849 5845 5841 5837 5833 5828 5824 5820 5815 5811 5806 5802 5798 5795 5791 5788 5786 5784 5781 5780 5779 5778 5778 5778 5778 5779 5779 5780 5782 5783 5785 5787 5789 5791 5794 5797 5799 5801 5804 5806
5879 5876 5873 5870 5867 5865 5861 5860 5855 5850 5846 5842 5838 5833 5829 5825 5821 5816 5812 5807 5803 5799 5796 5793 5789 5787 5784 5781 5779 5778 5777 5776 5776 5775 5775 5776 5776 5777 5778 5780 5782 5783 5785 5787 5790 5792 5794 5796 5798
5878 5876 5873 5871 5868 5865 5862 5862 5855 5851 5847 5843 5839 5835 5831 5827 5823 5818 5814 5809 5804 5801 5798 5795 5791 5788 5786 5783 5780 5778 5777 5776 5775 5774 5774 5774 5773 5774 5775 5776 5777 5779 5780 5782 5783 5785 5787 5789 5791